Theta_e
310 308 308 308 308 308 309 310 311 312 313 313 313 313 313 312 310 309 308 309 310 311 311 312 312 313 314 314 315 316 318 320 320 319 317 315 315 315 315 314 313 312 311 310 309 309 310 310 310 310 311 310 308 308 307 307 307 309 311 309 309 309 307 308 307 307 308 307 306 303 302 302 301 300 299 300 300 300 300 299 299 299 299 299 299 300 299 299
310 309 308 308 308 308 309 310 310 310 312 313 313 313 312 311 311 310 310 311 312 312 312 312 313 314 314 314 315 316 318 320 320 317 315 314 315 315 315 314 313 313 312 312 311 310 311 310 310 311 311 309 308 308 308 307 308 309 310 309 308 308 307 307 307 307 308 307 306 303 300 301 301 300 299 301 301 300 301 300 299 299 299 299 299 300 300 299
310 309 309 309 308 308 309 310 310 310 312 313 313 312 312 312 311 311 311 311 312 312 312 313 313 314 314 315 316 317 319 320 317 315 314 314 314 314 314 313 313 312 312 312 312 311 311 310 311 311 310 308 307 308 308 308 307 307 309 308 307 307 307 306 307 306 307 306 304 301 300 301 300 299 300 301 301 301 302 301 300 300 299 299 299 300 300 299
309 310 309 309 308 308 309 310 310 310 311 312 312 312 312 312 312 312 312 312 312 312 313 313 314 315 315 316 317 317 319 319 314 312 313 313 313 313 313 313 312 310 310 310 311 311 310 310 311 311 309 308 307 307 307 307 308 307 308 308 307 307 306 305 305 306 305 304 302 301 300 301 300 300 300 301 302 302 302 301 300 301 300 299 299 300 300 299
309 310 310 309 309 309 310 310 310 310 310 311 312 312 312 312 312 312 312 312 312 313 313 313 314 315 316 317 317 317 319 317 312 311 312 312 313 313 312 313 313 311 310 310 310 310 310 310 311 310 308 307 307 307 305 304 306 306 305 307 306 306 305 304 305 305 303 302 301 301 301 302 301 301 301 301 303 303 302 301 300 300 300 299 299 299 300 299
308 310 310 309 309 309 310 310 310 309 310 310 311 312 312 311 312 312 312 312 312 313 313 313 314 315 316 316 317 318 317 313 310 311 312 312 312 312 312 312 313 312 311 310 309 309 310 310 310 309 307 307 307 307 305 304 306 306 304 304 304 305 304 303 303 302 301 301 301 301 302 301 301 301 301 301 302 302 301 300 300 300 300 300 300 300 300 300
307 309 309 309 309 310 310 310 309 309 309 310 311 311 311 311 311 312 312 312 313 313 313 313 314 315 315 315 317 317 313 310 309 310 311 311 312 312 312 312 312 312 312 310 309 309 310 311 310 307 307 307 306 305 305 305 306 306 304 303 303 303 303 302 301 301 301 301 301 301 301 301 302 302 301 301 301 301 301 301 300 300 300 300 300 300 300 300
307 308 309 309 309 310 310 310 309 309 309 310 311 311 311 311 311 312 312 313 312 312 312 313 314 314 314 315 316 314 310 308 309 309 310 311 311 311 311 311 311 311 311 310 309 310 310 310 309 307 307 306 305 305 305 305 305 305 304 302 301 301 301 301 301 301 301 301 301 301 302 301 301 301 301 302 301 301 301 301 300 300 300 300 300 300 300 300
307 308 308 308 309 310 309 309 309 309 309 310 311 311 311 311 311 312 313 312 312 311 312 312 313 313 313 314 315 312 308 307 309 309 309 310 310 311 311 311 311 310 310 309 309 310 310 310 308 308 307 304 304 304 304 305 305 303 302 302 301 300 300 301 301 301 301 301 301 302 302 301 301 301 302 302 302 301 301 301 301 300 300 300 300 300 300 300
307 307 307 307 308 309 309 309 309 309 309 310 311 311 311 311 311 312 312 312 311 311 311 312 312 312 312 313 314 311 307 307 308 309 309 310 310 310 310 310 310 310 309 309 309 310 310 309 308 308 307 304 304 303 303 305 304 302 301 301 301 301 300 301 302 301 301 301 301 303 302 301 301 302 303 302 302 302 301 301 301 301 301 301 301 301 300 301
307 307 307 307 308 308 308 308 308 309 310 310 310 310 311 312 312 312 312 312 311 311 311 311 311 312 313 313 311 309 306 306 307 308 309 309 309 309 310 309 309 309 309 309 309 309 309 309 308 308 307 305 304 303 302 303 302 301 302 302 301 301 302 301 302 301 302 302 301 302 302 301 300 302 304 303 302 302 301 301 301 301 301 301 301 301 301 301
307 307 307 307 308 308 308 308 308 309 309 309 309 309 310 311 312 312 312 312 311 311 310 311 311 312 312 311 308 306 306 306 307 307 308 309 309 309 309 309 309 309 309 310 309 308 308 308 309 308 307 305 304 304 302 301 302 302 303 303 302 302 303 302 301 301 301 303 301 301 303 303 302 303 304 302 302 302 301 301 301 301 301 301 302 302 301 301
308 307 307 308 308 308 308 308 308 309 309 309 309 309 310 311 311 312 312 311 311 311 310 311 311 311 311 309 306 305 305 306 306 307 308 308 308 308 308 308 308 308 309 309 309 308 308 308 309 308 306 305 303 303 303 301 302 303 302 303 303 304 304 302 301 301 301 302 301 301 305 306 305 304 303 302 302 302 302 302 302 301 302 302 302 302 302 301
308 307 308 308 308 308 308 308 308 308 308 309 309 309 310 310 311 311 311 310 311 310 310 310 310 311 310 308 305 306 305 305 306 307 307 307 307 307 307 307 308 308 308 309 309 308 307 308 309 307 305 304 302 302 303 302 303 303 302 303 305 306 305 301 301 302 302 303 300 301 306 307 305 305 303 302 302 301 302 302 302 302 302 302 302 302 302 301
308 308 308 308 308 308 308 308 309 309 309 309 310 309 309 310 310 310 310 310 310 310 310 310 310 310 309 307 306 306 306 306 307 307 306 307 307 307 307 308 308 308 308 308 308 307 307 308 308 306 303 304 304 304 304 303 303 302 304 307 306 307 305 302 300 300 302 302 300 302 307 307 305 305 303 303 303 302 302 302 302 302 302 302 302 302 302 302
308 308 308 308 308 308 308 308 308 309 310 310 310 309 310 310 309 310 309 309 309 309 309 309 309 309 309 307 307 306 306 306 306 306 306 306 307 307 307 307 307 307 307 307 306 306 307 307 306 303 303 304 304 305 306 306 305 303 306 308 307 307 306 304 301 298 300 301 301 303 306 307 306 304 303 303 303 302 302 302 302 302 302 302 302 302 302 302
308 308 308 308 308 308 308 308 308 308 309 309 310 309 309 309 309 309 309 308 309 309 309 309 309 309 309 307 307 306 306 306 306 306 306 306 307 307 307 307 307 307 307 307 307 307 307 307 306 304 305 304 303 306 309 308 308 307 307 307 305 304 305 305 303 299 300 301 303 303 304 307 306 303 302 302 302 302 302 302 302 302 302 302 302 302 302 302
308 308 308 308 308 308 308 308 308 308 308 309 309 309 309 309 309 309 308 308 308 309 309 309 309 310 309 307 307 307 306 307 306 306 307 307 307 307 307 307 307 308 308 308 308 307 307 306 306 308 308 306 304 306 309 307 307 308 308 307 305 304 304 305 304 301 301 303 304 304 304 307 306 305 303 302 302 302 302 303 303 302 302 302 302 302 302 302
308 308 308 308 308 308 308 308 308 308 308 308 309 309 309 309 308 308 308 308 309 310 311 309 310 313 310 307 307 307 307 307 307 307 307 307 307 307 307 308 308 308 308 309 308 305 307 308 309 310 308 306 303 303 306 305 305 307 306 307 306 306 305 304 302 300 300 303 305 305 306 306 306 306 305 303 303 302 302 302 303 303 303 302 302 302 302 303
308 308 308 308 308 308 308 308 308 308 308 308 308 309 308 308 309 309 308 308 308 308 309 307 308 309 308 307 307 307 307 307 307 307 307 307 307 307 308 307 308 308 307 308 308 304 307 311 309 307 305 302 300 299 299 299 300 304 306 306 305 306 306 303 301 300 298 303 305 303 304 305 305 307 306 304 302 301 302 302 303 304 304 303 303 303 303 303
308 308 308 308 308 308 308 308 308 308 308 308 308 309 309 309 310 309 307 307 307 306 307 307 307 307 307 307 307 307 307 307 307 307 307 307 307 308 307 308 310 309 303 301 305 306 308 310 305 302 301 299 299 298 297 298 301 304 306 307 306 306 306 302 300 301 299 303 306 303 303 306 307 308 306 302 301 301 302 303 303 304 304 304 304 304 304 303
308 308 308 308 308 308 308 308 308 308 308 309 309 309 309 309 309 309 308 308 307 306 307 307 307 307 307 307 307 307 307 307 307 307 307 307 307 309 307 308 311 308 303 302 307 309 309 308 302 299 298 297 298 297 297 300 303 305 306 308 308 306 305 303 300 300 300 303 306 304 304 307 307 306 304 301 301 302 303 303 304 304 305 305 304 304 304 304
308 308 308 308 308 308 308 308 308 309 309 310 310 309 309 309 308 308 308 308 307 307 307 307 307 307 307 307 306 307 307 307 307 307 307 307 307 307 306 308 309 308 306 309 312 312 309 305 300 297 297 298 299 298 298 302 305 306 307 308 308 305 305 306 303 301 300 301 303 303 304 308 307 305 303 301 301 302 303 303 304 304 305 305 305 304 304 304
308 308 308 308 309 309 308 309 309 309 310 310 309 309 308 308 308 308 308 309 309 308 307 307 307 307 307 307 306 307 307 306 306 306 307 307 306 307 305 305 308 307 305 308 313 312 306 301 297 297 297 298 301 302 302 305 307 305 305 307 307 304 304 305 304 302 301 301 300 303 307 309 309 307 305 303 302 303 303 303 304 305 305 305 305 305 305 305
307 308 308 308 309 309 309 309 309 309 309 310 309 308 308 308 309 309 309 311 310 308 308 308 307 307 307 307 307 307 307 306 306 306 306 306 307 307 304 303 307 306 302 306 311 308 302 298 297 298 299 299 302 305 303 305 308 306 303 303 303 303 302 303 304 304 306 307 303 303 310 311 310 309 307 305 304 305 304 303 304 305 305 305 305 305 305 305
308 308 308 308 309 309 310 310 309 309 309 309 308 308 309 310 311 309 312 315 311 308 309 309 308 308 307 307 307 307 308 307 306 306 306 306 306 306 306 304 305 305 302 304 307 305 302 298 297 299 301 302 305 306 302 301 308 309 303 299 300 301 302 303 304 306 307 309 304 303 308 311 311 310 308 305 305 307 306 305 305 305 305 305 305 305 305 305
308 308 308 308 308 309 309 309 309 309 309 308 308 310 311 312 312 310 313 314 309 307 309 309 309 309 307 307 306 307 309 308 306 306 306 306 306 305 308 307 305 304 300 303 307 305 301 300 299 300 301 305 308 306 301 299 307 309 301 299 301 301 303 303 305 308 307 307 306 304 306 309 310 310 309 306 308 310 309 308 308 306 306 306 305 305 305 305
308 308 308 308 308 309 309 309 309 309 309 308 309 311 312 313 311 311 315 312 306 308 310 309 309 308 307 307 306 307 308 307 308 308 305 306 306 305 308 305 304 303 298 304 310 303 299 302 302 301 303 306 305 303 299 299 305 305 299 299 301 300 302 302 305 308 305 306 310 307 305 308 310 310 310 308 309 311 309 309 309 307 306 306 306 306 305 305
308 308 309 308 309 309 309 309 309 309 309 309 310 311 312 312 310 313 316 309 305 309 309 308 308 307 306 307 307 306 306 306 307 307 306 307 306 306 307 303 302 303 300 305 309 302 299 301 300 300 304 304 302 299 298 299 302 301 298 300 300 299 301 301 305 307 305 308 311 306 303 308 311 310 310 310 310 310 309 308 308 307 307 306 306 306 306 306
308 308 308 309 309 309 310 310 310 310 309 309 311 312 310 312 314 314 313 308 308 309 308 309 309 306 307 309 308 306 306 306 305 305 306 305 305 305 305 303 303 305 305 304 305 301 299 299 298 299 301 301 300 299 298 298 299 299 301 303 303 302 302 303 304 305 309 311 309 304 301 305 310 311 311 310 309 308 307 308 308 308 307 307 307 306 307 307
308 308 308 309 310 310 310 310 310 310 309 309 312 311 310 314 317 315 309 307 310 310 308 310 307 307 311 312 310 308 306 305 303 305 308 306 305 306 305 305 306 307 308 307 304 302 301 302 300 299 299 298 300 301 299 297 298 300 304 305 307 307 306 307 308 307 311 313 307 302 300 303 310 312 311 310 308 306 306 306 307 307 307 306 306 306 306 306
308 308 309 310 309 310 310 310 310 309 308 311 311 311 314 315 314 314 310 307 310 311 310 310 306 307 312 311 310 308 307 306 303 305 307 307 308 307 306 307 307 307 308 307 306 304 304 303 300 299 298 297 300 304 303 300 300 302 305 307 310 312 311 311 312 311 312 311 304 300 301 305 310 311 310 309 309 307 305 305 305 305 305 306 306 306 306 306
308 308 310 310 309 309 309 309 310 309 309 311 310 312 318 317 312 312 310 309 310 308 307 308 306 306 310 312 309 305 306 307 304 304 303 304 307 306 303 302 304 308 309 306 306 307 306 304 301 301 300 297 299 304 307 306 304 305 306 308 311 313 312 313 312 310 312 311 304 298 302 308 311 311 310 308 308 308 305 305 305 304 305 306 307 308 308 307
308 309 310 310 309 309 309 310 309 310 310 310 311 314 316 314 312 310 311 309 307 305 305 306 307 308 309 309 306 303 307 307 304 307 306 305 308 308 306 304 301 306 308 306 306 307 308 307 303 302 301 299 298 301 303 303 304 305 302 305 310 311 312 314 313 312 312 311 307 301 305 311 312 310 309 307 308 307 306 306 307 307 307 307 308 308 308 308
308 310 310 309 309 309 310 310 310 311 310 310 315 317 315 314 313 313 313 309 306 308 306 305 310 313 309 306 305 303 306 307 304 307 308 306 308 309 308 307 303 304 307 308 306 305 307 307 302 299 299 298 299 298 297 300 305 304 300 305 310 308 309 310 308 309 309 311 310 307 309 310 310 310 308 307 308 308 307 308 308 308 308 308 309 308 309 309
309 310 310 310 309 309 310 310 311 311 310 312 317 317 317 317 313 312 312 309 309 310 308 308 311 312 309 306 307 305 304 306 306 307 307 306 307 307 306 305 303 302 306 308 308 305 306 306 301 299 299 297 299 299 296 300 305 304 304 308 305 301 306 309 306 303 305 311 311 308 310 311 310 310 310 309 310 309 309 309 308 308 308 308 308 308 309 309
309 310 310 310 309 310 310 310 310 311 310 314 318 316 315 313 308 308 308 306 309 309 310 313 310 308 310 309 307 307 307 307 306 307 307 306 307 307 306 305 301 300 302 305 308 307 308 308 302 299 302 299 298 299 297 297 300 304 308 306 301 300 304 308 310 309 310 314 312 309 310 312 311 312 311 310 310 310 309 309 308 308 308 307 308 308 308 309
309 309 309 310 310 310 310 310 311 311 311 316 320 314 310 308 304 304 305 304 307 308 311 314 309 306 310 311 308 307 307 308 307 308 308 307 307 306 306 306 301 299 299 301 306 305 305 309 305 298 301 300 296 300 303 299 297 301 304 301 302 308 310 309 311 313 313 314 314 312 309 309 311 312 312 311 310 309 309 309 308 308 307 307 307 308 308 308
309 309 309 309 310 310 310 310 310 310 311 316 322 315 307 306 303 302 305 304 306 308 310 312 310 306 306 309 310 307 307 308 308 308 309 308 307 305 304 305 302 300 299 300 305 304 304 309 309 301 299 300 299 302 307 305 300 299 301 301 302 307 309 309 309 310 313 313 312 314 313 311 312 311 311 311 309 308 308 308 309 308 306 306 306 307 308 308
308 309 309 309 310 310 310 310 310 312 313 313 317 314 305 304 304 302 305 305 305 307 310 311 311 310 308 306 307 306 306 307 307 309 309 307 308 306 302 302 303 301 299 299 302 304 304 309 310 304 299 301 304 304 304 305 303 303 306 306 304 303 304 306 306 305 309 313 312 312 313 313 313 310 311 311 309 308 308 307 308 307 306 307 306 307 308 307
308 309 309 308 310 309 309 310 308 309 313 310 308 308 304 304 305 302 304 304 303 305 308 310 310 311 311 308 306 306 306 307 307 309 309 307 308 308 302 300 302 301 301 302 303 304 306 309 309 307 305 306 305 299 296 298 298 301 305 306 307 306 306 311 310 303 303 308 310 311 312 314 313 309 308 309 308 307 306 306 307 306 306 307 307 307 307 307
309 310 309 308 310 309 310 312 303 301 310 311 306 305 305 304 303 303 303 304 304 303 304 306 307 308 310 309 307 306 307 308 307 307 308 307 306 306 301 298 300 300 302 305 304 302 303 308 310 308 306 305 300 295 294 294 292 295 299 301 303 306 309 314 314 308 305 303 304 306 311 314 311 306 306 307 306 306 306 305 306 306 306 307 307 307 307 306
309 309 308 308 310 308 310 312 305 303 308 305 301 302 303 303 303 304 304 303 304 304 304 307 307 307 308 306 307 309 310 310 307 306 308 306 303 301 298 298 300 299 301 305 305 301 303 308 311 309 306 302 298 295 293 291 292 298 300 298 301 304 306 309 310 309 308 305 306 309 311 314 312 305 304 307 306 305 306 305 306 306 307 307 307 307 307 306
308 308 308 308 309 309 310 313 313 313 307 300 301 303 302 301 302 303 304 304 304 304 307 308 305 305 304 301 304 308 307 309 308 304 304 304 301 298 297 298 299 299 301 304 305 303 306 310 311 311 311 310 307 304 303 299 297 301 302 298 299 301 304 307 306 307 310 308 309 312 312 314 313 306 304 305 304 305 306 305 306 306 307 307 307 306 307 306
308 308 307 307 308 309 310 311 313 314 308 304 307 305 303 303 302 303 304 303 302 303 306 307 303 303 301 299 303 304 301 305 308 304 302 302 300 297 297 298 297 299 301 301 301 302 306 309 310 312 313 313 313 313 312 309 304 303 302 298 298 301 305 310 308 308 312 309 306 311 314 314 313 309 308 307 305 306 306 305 306 306 307 307 306 306 306 306
309 310 307 307 307 307 308 306 307 310 309 308 309 306 305 306 303 302 303 303 303 302 303 304 301 302 302 302 306 306 302 302 304 305 304 303 300 297 296 298 298 299 300 300 299 300 305 307 307 312 314 312 314 314 307 306 308 308 305 300 299 300 302 307 309 310 312 309 306 311 312 313 314 312 310 309 307 307 307 306 306 307 307 307 306 306 306 305
309 311 308 308 308 307 307 305 304 307 309 310 310 307 307 307 303 302 302 302 303 302 302 302 301 304 307 306 308 308 304 302 303 304 304 301 297 296 296 297 297 299 299 299 298 300 307 309 306 310 313 308 306 306 300 302 309 310 308 304 301 299 300 306 311 311 310 310 311 312 309 310 314 313 312 310 308 307 307 306 307 307 306 306 305 305 304 304
309 309 306 308 311 309 308 307 306 305 305 306 308 306 306 307 305 305 303 300 300 301 303 305 304 306 309 309 311 309 305 305 305 303 302 300 298 297 298 297 297 298 298 298 297 299 306 309 304 305 310 302 297 298 298 301 304 303 305 305 302 300 302 308 311 308 309 313 314 312 307 309 313 312 311 310 307 306 307 306 306 306 305 305 304 304 304 304
307 308 305 306 309 308 307 307 305 304 304 305 306 306 307 309 308 305 302 301 302 301 303 308 310 308 306 307 311 311 308 309 311 306 302 302 300 299 302 303 299 297 297 297 297 297 304 309 303 303 308 304 297 297 297 300 303 303 304 304 302 301 302 305 308 306 308 312 311 307 305 307 310 309 309 308 306 305 306 306 306 305 304 304 304 304 304 305
307 308 306 306 306 304 303 304 304 306 306 305 308 307 306 309 310 305 301 304 308 304 302 308 312 307 303 304 309 312 310 312 316 312 304 304 304 302 305 308 303 296 296 298 297 297 303 308 302 302 309 307 300 297 298 300 303 306 306 302 300 301 301 302 304 303 304 307 306 304 304 305 307 307 306 306 305 305 306 306 305 304 303 304 304 304 304 305
307 308 307 308 308 304 303 303 303 307 308 306 308 308 305 308 309 305 303 304 306 306 303 306 309 305 301 303 308 311 308 307 310 310 304 305 308 306 304 306 304 300 298 298 298 299 302 304 300 302 311 312 302 299 302 302 302 306 310 306 302 302 303 303 302 302 304 306 306 305 306 309 309 306 304 305 304 305 306 306 305 304 303 304 304 304 304 304
307 308 307 309 310 304 301 302 303 307 310 307 306 306 306 308 306 305 307 304 302 304 303 303 306 306 304 305 307 308 306 304 305 305 303 304 305 303 302 302 302 303 301 299 300 300 302 307 306 305 311 312 303 300 305 306 308 312 316 312 306 303 303 302 301 301 303 305 307 308 310 311 307 304 305 305 304 305 306 305 304 304 303 304 304 303 303 304
Wind_Speed
15 14 13 13 13 14 14 16 16 16 16 15 16 18 19 21 23 24 25 26 26 25 24 23 22 20 19 19 18 16 13 15 17 17 19 20 16 15 15 14 12 11 13 16 19 23 25 25 27 27 26 28 27 20 17 15 13 8 4 7 7 5 6 2 3 5 7 9 8 6 4 4 6 5 6 6 6 5 6 6 6 7 8 9 10 10 10 10
14 14 13 13 13 13 14 15 16 17 16 17 18 20 21 23 24 25 26 26 25 24 23 22 21 19 19 19 18 17 14 16 20 22 20 15 13 13 13 13 12 10 10 12 12 14 19 21 22 23 26 28 21 16 16 15 16 10 3 8 6 4 5 3 5 6 6 9 9 6 5 4 6 6 4 4 5 5 5 5 6 6 6 9 9 9 10 10
14 14 13 12 13 13 14 15 16 17 17 18 20 22 22 23 23 24 25 25 24 24 23 22 21 21 21 21 21 20 17 19 19 20 16 13 13 12 12 13 13 14 12 10 9 8 14 19 21 24 31 29 19 19 20 15 14 10 5 7 5 5 7 5 5 5 6 10 9 6 6 5 5 5 2 3 5 3 3 4 5 5 7 9 9 9 10 9
14 14 13 12 12 13 14 15 16 17 17 17 19 21 21 22 22 22 22 22 23 23 22 22 22 23 23 23 22 19 18 18 16 15 12 13 12 11 12 12 14 16 13 11 11 12 16 20 23 26 30 23 17 21 19 13 10 7 7 8 7 6 7 5 5 8 11 10 8 8 7 6 4 3 2 2 4 3 3 3 4 5 8 9 9 9 9 9
14 14 13 11 12 13 13 14 15 15 16 16 18 20 20 20 19 19 19 20 22 21 21 20 21 23 23 22 20 18 16 11 10 10 11 12 11 11 12 12 13 13 11 12 14 17 20 22 25 27 24 14 12 15 13 13 15 10 8 9 8 5 6 7 8 11 11 8 9 8 5 4 3 2 2 2 1 4 3 4 5 6 8 8 8 8 8 8
13 14 13 11 12 12 12 13 13 14 15 15 16 18 19 18 17 17 18 19 19 18 17 17 19 20 19 17 15 15 13 6 5 8 11 11 11 10 11 10 11 11 9 10 14 17 18 18 22 22 16 11 13 12 8 10 10 9 7 8 7 7 9 10 10 11 9 8 8 6 4 4 3 2 1 1 0 3 3 4 5 6 8 8 8 8 7 7
13 13 12 12 12 11 11 11 12 13 14 14 15 16 17 16 16 16 16 18 17 16 15 15 15 14 13 11 12 16 16 11 9 11 10 9 9 9 10 10 10 9 9 11 11 14 15 17 24 23 14 12 13 13 14 16 14 12 9 6 9 11 11 11 10 9 8 7 6 5 5 2 1 1 1 1 3 4 4 4 4 5 6 7 8 8 7 7
13 12 12 12 12 11 11 10 11 12 13 15 15 15 14 14 15 15 17 17 17 15 13 13 12 11 10 9 15 21 20 15 13 12 9 8 8 8 9 9 9 8 10 14 13 16 19 23 27 21 13 11 11 13 16 19 17 13 10 8 11 12 11 11 9 8 7 6 6 4 2 0 1 1 2 2 4 5 5 5 6 5 6 7 8 8 8 8
14 13 12 12 12 12 10 10 10 11 14 15 14 14 13 12 14 15 16 15 14 14 13 12 10 10 8 9 18 19 16 14 14 13 10 8 8 8 7 9 9 9 12 16 16 14 13 15 17 17 18 16 13 11 8 7 7 7 10 10 11 11 10 10 7 7 7 5 3 2 1 0 1 1 2 5 5 6 6 6 6 7 7 8 8 9 9 8
14 13 12 12 12 12 11 10 9 11 13 14 14 13 12 12 13 15 15 13 12 12 12 11 10 10 9 12 18 13 12 15 15 11 11 11 10 7 7 10 11 11 12 13 11 8 9 16 23 27 28 20 12 10 7 6 10 14 16 15 13 11 8 6 6 6 5 4 2 1 1 0 1 1 2 6 8 7 7 7 7 8 8 8 9 9 9 9
14 14 13 13 13 12 11 10 10 11 12 13 13 12 12 12 13 14 13 12 11 11 12 12 12 12 13 17 21 14 11 18 16 12 12 10 9 8 9 12 12 9 9 14 18 19 23 27 25 20 17 17 17 18 16 17 21 20 17 14 11 9 7 6 4 3 2 1 3 2 0 1 2 2 2 8 10 9 9 9 8 9 9 9 9 9 9 9
14 15 14 14 14 12 11 11 10 10 11 12 10 10 13 13 13 14 14 12 10 10 11 11 10 11 17 21 26 17 14 19 17 15 13 9 10 12 14 15 14 11 9 18 24 21 19 15 11 10 15 19 15 13 18 20 19 15 9 8 6 5 6 6 3 2 1 1 3 1 1 3 4 4 5 9 10 10 10 10 10 10 10 11 10 10 9 9
14 15 14 14 13 12 11 10 9 10 10 11 10 11 13 13 14 14 12 10 9 11 11 12 11 13 16 20 22 17 18 20 17 15 14 13 15 16 18 18 17 16 10 13 15 10 9 8 10 21 27 20 11 11 17 15 12 9 4 3 3 3 3 5 4 3 1 0 3 1 1 2 5 6 8 11 11 11 12 12 12 12 12 12 11 11 10 10
15 15 14 13 13 12 10 9 10 12 13 14 14 14 14 13 14 13 12 11 12 14 14 15 12 13 16 18 15 15 17 16 14 14 16 16 16 17 19 17 15 15 10 11 15 16 17 15 17 25 25 20 20 20 16 7 5 5 1 1 1 1 2 3 4 4 1 0 3 2 1 2 4 7 11 12 11 13 13 13 13 13 14 13 13 12 11 10
16 15 14 13 12 11 10 11 13 15 16 17 16 15 14 15 15 15 15 14 14 14 13 12 10 14 21 18 12 15 13 13 13 15 18 17 17 19 19 18 17 19 18 20 22 21 18 14 19 24 22 24 24 16 8 2 2 1 1 1 0 0 2 3 3 5 2 2 2 2 2 0 3 7 11 13 12 14 14 13 14 14 15 14 14 14 12 11
16 15 13 13 12 11 13 14 15 15 16 16 16 15 14 16 17 18 17 14 12 11 10 9 12 20 22 14 12 16 15 17 18 18 20 18 19 21 20 19 20 20 20 20 19 15 12 13 22 24 17 15 10 4 4 3 2 1 1 1 1 0 2 2 3 3 5 3 2 2 2 2 1 6 11 13 13 15 15 15 15 15 15 15 16 15 14 13
15 14 13 12 11 12 15 16 15 14 15 15 14 14 15 18 18 16 13 10 9 9 10 15 19 20 17 11 12 16 16 18 19 19 19 18 19 18 18 18 18 17 16 16 13 10 10 12 16 14 8 6 1 1 3 1 2 1 0 1 0 1 1 0 3 1 5 2 2 1 3 4 1 4 10 12 13 15 17 17 16 16 16 16 16 16 16 15
14 13 12 12 12 14 16 16 14 14 16 17 15 16 17 17 16 13 11 10 12 12 13 15 14 10 10 8 11 14 16 17 16 17 16 16 16 15 15 14 14 13 12 12 10 10 11 10 8 4 3 5 2 2 0 1 2 1 1 1 1 1 2 2 1 3 6 2 3 2 5 7 3 4 8 12 13 15 17 17 17 17 17 17 17 18 17 16
14 12 12 13 14 15 15 14 13 15 18 18 17 17 16 15 14 12 12 13 14 11 7 9 8 6 10 12 13 14 15 14 14 15 15 14 14 13 12 10 8 7 7 5 8 11 10 7 5 3 3 4 4 4 2 3 3 1 2 1 1 1 1 1 1 4 5 3 3 2 4 7 6 5 7 11 15 17 18 19 19 19 19 18 18 18 18 17
14 12 12 14 16 15 15 15 15 16 18 19 18 16 14 15 11 11 15 17 19 17 11 15 18 19 19 17 16 15 13 13 12 12 13 12 11 11 10 8 7 8 8 3 4 9 8 5 4 3 2 4 4 3 2 2 2 1 2 2 1 1 1 2 1 2 4 4 1 1 5 8 10 9 6 8 12 15 17 19 19 19 19 20 19 18 18 17
14 13 14 16 15 15 16 18 18 19 19 19 16 11 10 11 8 11 21 24 24 23 19 20 22 22 20 16 14 14 12 11 10 10 10 8 6 5 5 5 6 8 8 3 2 5 5 5 4 2 2 4 3 2 2 2 2 1 0 1 1 1 1 2 1 1 3 3 1 0 7 10 10 9 5 6 8 11 15 18 18 18 19 19 19 18 17 17
15 15 16 16 15 16 18 19 20 20 19 15 11 8 8 11 13 18 23 21 20 21 20 19 19 19 16 13 11 11 9 8 7 8 7 6 5 3 5 8 7 3 4 4 2 3 4 4 3 1 1 2 1 0 3 2 1 1 0 1 1 1 2 0 1 1 2 2 1 3 7 9 7 5 3 4 7 10 13 15 16 17 18 18 18 18 17 17
16 16 16 16 16 17 19 20 20 18 13 9 8 9 11 17 20 21 23 20 16 17 17 16 16 16 12 10 9 7 7 7 6 5 4 5 8 9 10 11 7 2 3 5 0 2 3 3 2 0 2 1 1 0 3 2 1 2 2 1 1 2 2 0 2 1 2 1 3 6 6 5 4 2 2 1 4 8 12 13 14 16 18 18 18 18 18 18
15 16 16 16 17 18 19 20 18 13 8 7 9 13 18 23 22 20 21 16 10 11 14 14 14 13 11 10 8 8 11 10 8 7 7 7 10 11 11 9 6 4 5 5 4 7 4 3 2 1 2 2 2 0 1 2 0 2 2 2 1 2 2 2 2 3 2 2 3 6 3 0 4 3 3 4 2 5 9 11 13 15 17 18 18 19 19 18
14 15 16 16 17 19 19 18 14 8 7 9 14 19 22 21 17 15 13 9 5 5 7 8 9 9 9 8 7 9 12 13 12 10 8 9 8 8 8 8 6 3 2 3 6 9 5 2 1 1 2 2 3 1 2 2 1 2 1 1 1 1 2 4 5 3 2 2 2 5 0 3 4 3 3 4 4 4 7 11 14 16 16 17 19 20 19 18
14 14 15 15 17 18 17 15 11 7 8 15 21 22 19 14 10 8 5 4 3 2 3 3 4 4 5 4 6 8 7 7 12 11 8 9 8 8 7 6 6 3 2 1 4 5 3 2 1 1 2 2 1 1 2 2 2 1 1 0 1 1 2 3 4 3 1 1 2 4 2 2 3 4 4 4 4 5 4 8 13 15 17 19 20 20 19 19
14 14 14 14 15 16 14 12 10 8 12 22 24 17 11 7 5 3 2 3 1 1 1 2 2 2 3 3 3 4 2 3 7 10 9 8 7 7 5 2 3 4 3 3 3 2 1 1 1 0 1 1 1 1 1 2 3 1 2 1 2 1 1 2 3 1 2 1 1 3 4 0 3 5 3 3 4 4 4 3 5 6 8 11 13 15 17 20
14 14 14 13 14 15 12 11 12 9 14 24 21 10 6 2 4 4 1 3 1 1 2 2 4 6 6 7 6 5 5 4 4 6 9 9 6 6 6 3 4 6 2 2 1 1 2 1 1 1 2 1 0 2 2 2 2 2 2 1 0 0 1 2 2 1 1 2 1 5 6 1 2 3 1 1 3 5 7 7 6 7 8 8 8 9 10 13
14 12 12 12 13 14 11 11 12 10 17 24 15 5 2 2 4 2 2 1 1 2 2 3 5 4 5 8 9 9 7 5 4 4 6 8 6 6 9 9 13 12 7 4 2 2 1 2 2 1 2 1 2 3 2 3 1 3 3 2 1 1 0 1 1 1 1 1 2 5 7 1 2 3 3 2 3 6 8 6 6 9 11 10 10 11 11 10
15 12 10 10 10 12 12 12 12 13 21 23 10 3 3 4 1 1 1 1 1 2 1 1 1 1 2 3 6 8 7 6 6 5 7 9 9 12 15 14 14 11 7 8 7 3 1 2 2 2 2 2 2 2 2 2 2 3 3 2 2 1 1 1 1 1 2 1 3 4 6 3 1 3 3 3 3 5 7 7 7 11 13 11 9 10 10 10
15 12 9 8 9 10 12 14 14 16 23 21 7 3 2 2 1 2 1 1 2 1 0 1 1 2 2 2 3 6 5 5 6 5 6 7 7 11 11 7 6 5 3 5 5 1 1 1 2 2 2 1 1 1 2 2 2 2 2 1 1 1 1 2 1 1 1 2 3 3 4 4 0 3 2 3 3 3 5 7 9 12 15 14 11 9 9 10
15 13 9 9 11 11 12 14 15 20 24 20 6 2 1 0 0 1 0 0 1 1 1 1 1 2 2 2 3 3 2 4 7 5 3 2 2 4 2 1 2 2 1 2 2 1 1 2 1 1 1 1 1 2 2 3 2 2 2 2 2 0 0 0 0 1 1 2 2 1 3 2 0 1 3 5 5 5 5 7 9 12 14 14 12 10 9 9
15 13 12 13 13 12 13 14 15 19 20 16 6 1 2 2 1 1 1 0 1 1 1 2 2 1 0 1 2 2 1 2 4 4 2 1 2 2 1 0 1 1 1 2 2 2 1 2 1 1 1 2 2 2 0 1 1 1 1 2 2 1 2 1 1 1 1 1 2 0 2 0 1 1 1 4 7 8 7 6 7 9 11 13 12 11 10 9
15 14 14 15 13 14 16 16 15 14 12 11 6 2 3 1 1 1 1 1 1 2 2 2 1 2 2 2 1 2 0 2 3 2 2 1 1 1 2 1 1 1 2 2 1 1 2 1 1 0 1 2 2 1 2 1 1 1 1 2 1 1 2 1 1 1 1 1 1 1 1 1 1 1 1 5 7 5 6 8 10 10 11 12 12 12 12 11
16 16 16 14 14 15 15 15 14 11 8 10 6 3 1 2 1 1 2 3 1 0 1 1 1 3 3 2 1 1 1 1 1 1 2 0 2 1 1 2 1 1 2 2 2 1 2 1 2 1 2 3 1 0 2 2 1 1 1 2 0 1 1 1 1 1 1 2 1 1 1 1 1 2 3 5 4 3 8 12 12 14 14 13 13 13 13 12
17 18 17 15 14 15 12 11 11 9 7 8 4 1 2 2 1 2 4 4 4 4 4 2 1 2 1 0 1 1 1 1 1 0 1 1 1 1 0 1 2 2 1 1 2 1 1 0 2 0 1 3 2 1 1 2 1 0 1 0 1 1 1 2 2 1 1 1 1 1 2 1 2 2 1 2 1 4 10 13 14 15 14 14 15 14 13 13
18 19 18 15 14 14 11 8 7 5 4 5 3 1 2 1 0 2 3 4 5 6 5 3 1 1 2 3 1 1 1 0 0 1 2 1 1 3 2 1 3 2 1 1 1 1 0 2 2 0 1 1 2 1 0 2 1 2 0 3 2 1 0 0 0 1 1 1 1 0 2 1 2 1 2 1 2 5 7 10 12 13 14 15 14 13 13 13
19 19 18 15 13 12 11 8 6 3 2 3 1 1 1 1 1 3 4 4 5 4 3 2 1 1 2 4 2 2 1 2 2 1 2 2 1 3 3 2 3 2 1 0 0 1 1 1 2 0 0 1 2 2 1 1 1 2 1 3 1 1 1 0 0 0 1 1 1 0 1 3 3 2 2 1 2 4 5 7 9 10 13 14 13 12 12 12
19 18 15 13 12 11 9 7 6 4 2 2 1 1 1 1 2 5 6 5 3 3 2 2 1 1 1 2 2 3 2 2 4 3 2 2 1 2 2 2 3 3 2 0 0 0 1 1 1 1 1 1 1 2 2 2 2 1 0 1 0 1 1 1 1 1 1 1 1 1 1 2 3 2 3 3 2 2 3 5 7 9 11 13 12 11 11 12
18 14 10 12 12 9 8 7 6 4 2 1 1 2 1 2 4 7 8 6 3 2 2 2 2 2 2 0 1 2 2 1 3 2 1 1 1 1 2 2 3 4 2 1 0 1 0 1 1 2 1 3 1 1 1 1 1 2 2 1 2 1 1 0 1 1 1 1 1 1 2 1 2 2 3 4 3 1 1 3 5 8 10 11 9 8 9 10
18 9 6 12 12 9 10 7 4 3 2 1 1 1 1 3 6 7 8 6 3 1 2 2 2 3 3 2 1 2 3 2 2 1 1 3 2 0 2 4 5 5 4 2 1 2 1 0 1 2 2 2 1 2 2 2 2 1 1 0 1 1 1 1 1 1 1 1 1 1 3 1 2 3 4 5 4 2 1 4 5 7 9 9 7 5 6 8
17 6 5 12 11 11 12 5 4 3 2 1 2 2 3 5 6 6 8 6 2 2 3 2 2 2 3 2 1 3 4 2 2 1 1 2 0 1 3 6 6 6 4 1 1 1 1 1 2 2 1 1 1 2 1 1 2 2 1 1 1 0 1 1 1 2 2 0 0 0 2 2 2 6 8 6 4 1 2 3 4 6 9 9 7 4 4 6
16 8 7 12 13 14 11 3 2 1 1 2 3 4 4 5 4 6 7 5 2 2 2 1 1 2 2 1 2 3 4 2 3 2 1 1 1 1 3 5 5 5 3 1 1 3 2 1 2 1 1 1 1 1 1 1 1 1 1 1 1 1 1 1 1 1 2 2 2 1 3 1 2 5 8 7 4 3 3 3 3 6 8 9 8 6 6 7
15 10 8 11 15 15 9 2 1 2 0 2 3 3 3 4 4 5 5 5 4 3 2 1 1 2 2 2 3 3 2 2 2 0 0 1 2 3 4 4 4 4 2 1 1 4 3 1 1 2 1 2 2 2 2 2 3 3 1 2 2 2 3 2 1 1 1 2 2 1 3 2 2 1 5 6 4 4 3 3 4 5 7 8 8 8 9 10
14 9 6 11 16 15 8 3 4 4 2 2 2 2 3 2 4 5 4 5 5 3 2 2 3 4 4 3 3 2 1 1 0 0 1 1 1 2 3 3 4 4 2 1 2 3 1 0 2 2 2 3 2 1 1 1 2 2 2 3 4 4 4 2 2 2 3 2 2 4 3 0 1 2 5 5 2 3 4 4 4 4 7 9 11 11 10 10
12 5 3 7 11 11 7 4 5 5 4 4 2 2 3 2 3 5 4 4 5 4 4 4 5 5 3 2 3 2 1 2 1 2 2 2 1 1 2 2 3 3 2 2 3 3 1 0 1 2 2 1 0 1 2 1 2 3 3 5 6 5 3 2 2 3 4 4 3 7 3 2 3 5 6 5 2 2 5 5 5 6 7 10 12 12 9 11
9 4 4 5 6 6 4 5 7 6 5 8 4 3 5 3 2 4 4 3 5 7 4 2 4 4 3 4 4 2 1 2 1 2 2 2 1 1 2 2 1 3 3 3 4 2 1 2 1 1 2 2 2 1 2 3 1 2 3 6 7 6 5 5 5 3 5 5 4 6 4 3 7 6 6 4 2 3 6 5 5 7 9 11 11 9 9 15
7 5 8 8 5 4 3 6 12 9 7 7 4 3 6 4 2 4 5 2 5 7 5 1 3 5 5 6 4 3 4 1 1 3 2 2 3 2 1 1 2 4 4 3 3 1 1 2 1 1 1 0 1 1 2 2 1 1 2 5 8 8 10 10 7 5 6 6 3 0 6 8 8 5 4 3 2 6 7 6 7 8 9 11 9 8 13 20
7 5 9 10 5 5 5 7 13 13 8 5 2 2 5 7 5 4 3 3 3 6 6 4 5 7 6 4 3 4 5 4 2 4 4 3 4 3 2 1 3 5 5 3 2 1 1 1 2 1 2 0 1 2 2 1 1 3 4 6 8 9 12 11 6 3 5 7 3 1 4 10 10 9 10 10 10 9 8 7 8 8 8 9 8 10 17 21
10 6 9 10 5 5 7 9 13 11 5 3 3 2 5 7 6 5 5 6 4 3 7 6 3 6 7 4 4 3 5 7 3 3 9 7 3 4 4 2 4 5 3 3 1 1 2 1 2 1 2 1 2 2 2 1 2 4 5 5 7 7 8 9 6 3 4 8 6 3 7 12 12 11 13 12 8 7 9 9 7 6 9 8 7 12 18 18
13 9 8 9 5 5 7 9 10 6 2 3 4 4 4 6 8 7 5 7 5 4 9 10 7 7 4 3 5 4 5 7 1 3 15 13 5 8 7 4 9 9 3 3 2 1 2 1 2 1 2 1 2 3 2 2 2 5 9 8 11 9 6 7 7 6 8 6 2 3 6 9 6 6 7 8 8 9 11 9 6 7 8 6 7 13 17 15
16 12 9 8 4 3 6 7 6 4 3 6 8 7 5 6 12 13 5 5 8 6 8 13 14 9 2 4 8 6 3 5 2 4 15 12 6 9 7 6 13 12 6 5 2 0 2 3 2 2 2 1 1 2 2 2 3 5 7 7 13 12 7 4 5 9 11 7 5 5 7 3 2 5 7 8 9 9 8 6 6 9 8 5 7 13 14 12
Wind_Direction
117 110 100 92 87 86 90 91 89 90 93 98 107 113 113 112 113 114 116 116 115 117 121 124 127 129 128 129 125 122 130 129 122 114 92 74 75 79 74 76 79 85 102 103 104 111 113 107 103 104 98 87 84 83 79 73 71 70 48 81 85 81 94 92 97 103 113 133 152 159 190 149 129 134 122 109 105 121 112 109 119 113 122 127 128 133 129 124
124 116 109 100 91 90 91 91 90 87 91 100 108 111 112 111 113 116 118 118 119 122 123 127 130 129 128 125 121 122 129 129 115 94 79 74 79 78 74 77 74 74 94 106 113 116 107 105 106 102 94 84 76 78 79 67 57 49 51 88 76 73 77 40 86 103 114 131 143 152 162 139 130 143 143 126 124 136 125 123 131 129 135 134 135 136 133 132
129 123 117 106 98 95 95 94 91 88 92 102 107 108 110 111 113 116 120 123 125 126 127 129 130 128 125 122 124 124 129 128 100 73 72 81 81 78 76 77 73 68 74 104 129 126 112 113 108 99 94 84 72 79 75 61 54 36 41 87 77 91 92 72 89 105 119 130 140 143 140 133 133 138 136 137 139 148 143 141 152 160 160 150 147 144 141 139
132 129 124 113 104 100 100 98 95 93 93 101 107 107 111 113 115 118 122 127 128 129 131 132 132 129 126 126 127 127 131 118 69 46 68 80 79 77 76 81 79 72 72 100 121 123 121 118 111 102 93 80 67 74 57 39 62 37 35 85 108 118 99 86 107 126 134 136 136 135 136 133 136 135 129 172 156 124 123 147 153 164 168 160 153 150 148 144
138 134 129 119 110 106 104 103 101 100 96 100 106 109 112 113 115 119 123 127 129 131 133 135 135 131 131 129 126 129 132 110 40 40 73 75 77 76 77 82 85 88 91 104 115 121 120 116 110 98 87 70 54 66 49 47 79 70 46 76 100 113 99 108 126 130 135 135 131 136 141 130 132 133 127 214 199 87 113 149 144 149 160 161 156 154 152 150
143 140 135 127 117 112 110 109 108 105 104 104 108 113 113 111 114 117 122 124 125 129 131 136 136 135 137 130 132 140 128 89 23 53 71 74 77 76 82 88 91 98 110 118 121 119 118 117 107 90 80 68 51 61 57 48 78 94 73 71 86 96 107 124 131 129 133 134 135 141 137 125 138 158 121 280 253 110 138 152 152 157 157 158 159 159 157 158
144 144 143 136 126 121 117 114 111 108 109 109 114 118 114 111 114 118 121 120 121 121 125 134 136 141 143 139 146 131 99 68 47 57 69 76 77 77 83 90 87 89 115 124 123 119 119 115 102 90 85 80 67 72 78 67 70 96 102 88 93 99 111 127 131 130 136 136 137 137 134 131 137 168 322 289 193 175 171 162 163 167 161 159 162 166 169 171
142 145 146 141 135 131 124 117 111 109 110 112 119 120 117 114 114 122 123 121 120 114 122 132 135 146 145 149 137 104 70 49 49 57 68 72 74 76 80 89 85 92 116 115 114 115 112 106 99 90 77 80 92 93 92 81 62 73 107 112 103 104 112 121 123 127 134 130 128 127 127 76 12 296 279 217 187 189 187 170 166 171 170 168 171 178 182 185
138 141 145 144 142 138 131 124 113 109 112 116 121 120 120 116 115 126 128 127 120 110 121 127 134 143 132 147 133 93 42 34 49 57 68 74 73 68 82 95 94 106 112 112 118 115 106 103 104 111 106 101 102 97 94 86 56 74 111 117 111 108 110 113 116 125 129 113 112 153 147 25 2 319 224 195 190 192 191 180 174 177 177 177 181 187 191 195
140 137 140 144 146 143 136 128 117 113 114 118 120 121 121 117 118 127 132 132 120 110 116 124 134 130 131 151 129 88 34 47 51 56 72 77 76 74 95 99 100 110 108 112 120 112 110 112 111 114 109 103 93 77 58 77 111 118 112 109 108 109 107 103 114 122 121 94 69 159 137 343 285 299 189 187 194 194 194 192 186 184 183 184 187 194 201 204
146 139 135 140 143 141 136 127 123 119 118 121 119 121 126 125 126 130 136 133 122 114 110 120 127 127 153 145 110 81 57 63 56 57 69 77 92 100 102 94 88 93 107 112 108 107 110 112 113 106 94 98 94 78 83 103 118 121 113 102 96 106 99 76 97 106 114 94 29 37 135 252 249 273 194 182 193 195 197 200 197 195 194 194 197 203 208 208
149 143 135 138 138 135 132 126 126 126 126 127 120 124 131 133 132 133 137 132 124 116 110 118 123 148 159 119 89 82 74 70 65 65 72 92 99 91 88 87 82 82 106 112 108 109 111 115 123 113 109 115 105 87 104 116 117 116 114 102 100 120 87 45 24 23 11 282 6 31 208 197 203 225 190 184 194 197 200 206 205 205 204 205 207 211 214 213
147 147 141 138 137 134 131 127 132 137 139 136 129 130 133 135 136 137 139 135 129 117 115 121 128 167 154 95 77 86 80 74 73 73 81 87 85 83 86 90 95 98 103 103 100 94 99 120 126 118 120 117 109 120 123 119 112 109 98 94 129 151 80 34 8 356 190 335 2 302 251 170 190 202 192 190 196 199 205 211 212 211 212 212 214 216 219 219
146 148 145 141 139 137 130 127 130 133 137 135 132 130 131 135 135 138 135 129 127 122 127 134 147 176 138 92 82 91 83 83 85 83 83 81 82 85 88 93 97 96 89 82 88 89 98 118 121 112 111 107 114 122 119 106 97 110 126 130 164 182 113 69 24 6 196 350 359 280 275 107 173 193 198 201 200 204 212 216 218 217 217 219 221 222 223 225
147 149 147 144 142 138 128 124 123 128 132 131 131 128 127 131 130 129 124 121 126 127 134 139 162 154 114 90 92 93 90 99 97 91 87 87 91 91 92 95 93 90 90 87 88 92 101 117 110 99 98 109 119 122 114 104 83 118 213 145 127 291 118 112 51 31 3 308 333 258 271 33 177 193 204 209 206 209 217 222 223 224 224 225 227 229 229 229
148 149 147 144 142 135 126 121 120 130 138 136 134 129 128 129 127 126 122 123 128 134 144 132 140 133 105 84 96 97 101 103 96 95 95 96 97 97 97 95 93 92 91 90 89 92 104 111 99 95 99 109 117 121 128 140 125 168 274 101 99 104 123 152 136 51 353 305 240 242 282 321 156 186 204 210 212 215 222 226 226 228 230 231 233 235 236 233
147 147 145 144 140 133 129 124 115 123 140 146 140 133 132 129 128 129 122 121 122 134 141 118 119 116 91 85 104 100 103 100 96 100 100 101 100 100 101 99 98 94 89 92 96 99 103 103 96 93 91 85 41 248 158 146 111 139 298 109 79 254 216 236 147 45 340 282 211 215 254 276 184 177 208 212 213 218 225 231 231 231 233 235 237 238 239 238
142 144 146 145 140 134 134 130 116 114 127 138 140 135 133 130 133 129 112 112 116 128 135 116 115 105 78 101 114 104 106 103 104 105 101 102 102 102 104 104 100 96 96 89 78 79 85 89 98 109 73 60 27 306 228 53 67 99 81 123 133 208 248 303 146 9 350 286 248 231 241 267 254 208 220 220 220 223 232 238 237 236 235 237 239 241 242 241
139 143 148 147 142 136 134 132 126 121 123 128 134 134 132 129 128 113 106 121 113 112 122 88 80 102 114 124 116 108 111 110 110 108 107 106 103 106 105 98 97 101 105 81 42 50 66 80 90 97 54 28 3 353 11 20 9 50 80 91 74 151 205 359 64 23 0 297 271 258 262 284 283 263 230 227 231 231 237 242 242 239 236 237 239 242 244 242
140 144 149 147 142 137 134 134 133 132 128 130 131 132 132 123 109 84 87 93 84 81 87 80 86 104 116 120 117 113 109 107 112 115 116 111 103 103 94 90 93 73 66 49 13 40 61 85 62 38 10 341 328 340 344 339 344 61 93 101 85 328 80 84 70 38 355 302 257 264 290 286 277 271 239 227 234 230 234 238 241 240 235 237 239 242 244 244
144 145 149 146 141 135 135 135 135 135 131 131 129 129 136 124 112 102 91 78 72 80 85 89 98 108 112 117 121 115 105 103 116 121 115 106 109 102 74 84 90 57 37 16 36 44 55 81 53 16 352 332 315 306 298 303 324 317 357 103 122 327 24 72 18 38 0 315 159 47 297 282 274 275 250 220 223 224 231 235 240 242 238 238 240 243 245 245
147 149 151 148 141 135 136 135 134 134 129 129 130 130 143 131 126 124 107 85 73 78 84 91 100 105 110 118 120 117 111 102 107 118 107 90 100 108 83 76 74 61 5 3 79 64 52 75 56 43 50 0 50 247 280 294 346 5 329 269 120 13 321 197 116 35 339 321 323 339 306 295 299 304 288 222 218 225 232 236 242 244 242 241 242 245 247 247
150 152 155 153 146 139 139 137 135 133 123 122 132 131 133 126 120 116 107 94 76 72 82 90 91 95 101 106 111 121 116 92 72 79 80 87 93 92 91 78 68 80 8 359 81 117 76 82 55 104 198 298 32 254 274 265 8 27 2 318 24 7 323 204 110 3 333 332 313 310 288 294 333 10 49 68 231 239 240 243 246 244 242 241 241 245 246 247
152 155 159 159 151 143 141 140 137 127 107 112 131 132 128 122 116 108 98 90 78 69 74 79 78 81 84 90 101 106 99 83 57 48 60 90 98 86 82 78 74 68 23 12 77 88 77 59 50 137 192 270 278 315 317 267 169 47 12 12 6 341 320 288 308 322 289 188 306 310 258 139 10 26 53 33 342 264 252 257 256 247 244 243 243 245 246 250
154 157 163 163 157 150 146 146 142 120 101 121 133 134 130 121 111 102 94 86 83 61 56 67 65 66 75 85 100 99 90 74 51 50 66 80 92 97 89 72 65 76 331 353 75 82 68 43 79 160 157 230 261 346 19 301 221 113 32 354 329 307 292 287 297 294 238 157 25 340 293 102 28 16 23 3 342 298 265 262 262 255 252 249 248 250 251 254
155 157 164 168 165 159 154 153 147 126 121 136 140 136 131 122 104 92 87 87 85 10 7 42 38 56 67 67 112 112 92 63 48 51 71 73 79 108 104 63 56 108 182 68 81 89 66 63 175 218 178 182 223 97 42 303 266 127 91 236 224 261 279 294 304 290 275 39 21 351 354 92 61 32 13 342 318 309 279 262 265 265 262 258 259 261 261 260
155 158 163 168 170 168 164 164 158 144 142 147 146 139 133 122 81 36 36 93 101 329 16 21 21 87 61 37 132 134 112 107 66 50 59 68 77 103 106 73 69 99 149 155 105 84 62 116 136 199 222 224 242 97 50 295 282 50 105 171 192 235 297 316 314 344 44 321 218 24 6 69 72 37 354 314 317 349 16 338 307 302 290 278 277 278 274 268
157 160 165 168 172 173 171 173 169 158 154 155 149 139 141 119 4 344 71 111 106 52 65 71 89 93 78 71 84 96 101 116 85 41 52 65 75 91 89 93 103 94 110 219 174 56 21 23 45 307 240 233 292 39 33 279 296 54 122 159 250 318 347 307 304 59 59 255 155 32 358 310 82 42 321 281 346 8 8 358 356 1 1 356 350 340 316 291
163 163 168 174 179 182 184 181 177 168 162 160 150 122 119 346 338 359 92 127 192 101 94 112 109 83 73 76 63 68 81 71 54 42 52 62 67 91 99 103 107 98 67 33 84 114 57 23 21 311 285 25 61 52 15 292 336 95 135 126 96 128 31 290 326 71 221 277 51 16 352 358 98 30 1 7 4 353 344 331 325 337 348 351 350 352 348 331
173 171 174 184 190 194 196 186 178 170 166 164 149 78 30 357 356 100 67 193 178 130 96 110 144 337 17 81 50 46 55 48 50 62 72 75 84 102 105 103 103 97 66 54 68 94 93 59 59 20 356 42 76 82 48 5 74 126 159 165 169 182 205 222 21 282 229 82 59 19 353 339 79 45 13 7 351 319 313 314 316 329 341 347 344 341 339 335
180 180 183 188 181 182 184 177 173 169 169 170 153 36 5 7 71 118 117 159 136 139 59 41 344 346 24 101 56 32 39 41 31 46 79 74 83 101 103 101 103 101 95 77 69 96 157 106 61 34 38 68 173 146 88 90 123 172 214 232 214 178 190 190 156 245 269 62 75 39 345 305 315 73 10 345 333 275 280 303 312 320 334 348 353 345 335 329
180 182 181 169 156 156 164 165 166 167 173 176 175 347 341 82 227 182 219 132 107 153 142 54 355 32 51 79 56 14 5 34 20 31 71 40 57 83 59 249 138 114 172 134 102 168 155 81 55 348 45 21 269 227 149 139 178 233 233 252 267 129 126 236 44 283 318 43 85 21 330 295 158 22 327 325 336 325 297 293 303 312 328 347 359 357 346 332
178 177 169 157 145 144 148 149 155 166 178 186 196 332 66 102 219 163 122 29 24 8 72 76 48 47 42 100 70 0 341 32 4 31 68 353 55 70 3 16 310 294 153 131 140 172 163 116 157 212 100 11 312 272 202 139 192 250 280 308 322 24 40 22 341 293 293 41 104 267 312 41 146 233 252 302 327 337 335 334 338 337 343 357 8 10 5 353
174 170 166 157 148 146 141 138 144 156 175 189 185 90 78 134 204 159 204 251 311 355 49 78 96 71 41 71 95 285 94 58 344 12 60 23 115 153 189 168 281 314 101 126 171 179 212 190 112 188 354 357 333 334 354 330 320 53 308 307 351 53 8 345 300 301 337 328 149 171 296 138 125 146 226 300 312 334 11 22 23 21 20 20 20 17 12 6
172 169 167 163 157 153 142 135 137 130 143 166 153 78 118 202 197 183 193 183 181 143 82 47 110 88 46 34 29 297 227 75 12 15 40 47 175 168 160 160 215 222 152 175 162 123 270 279 71 27 348 4 13 32 329 280 240 120 211 272 5 41 16 55 29 17 343 292 223 194 272 227 277 302 303 307 310 28 24 22 26 27 28 27 25 20 13 8
174 172 171 171 171 167 155 142 135 112 116 146 132 66 202 212 200 175 151 139 149 153 142 136 110 96 94 202 53 24 278 34 56 234 54 15 246 210 160 137 177 203 221 187 161 162 256 99 88 31 47 36 26 65 325 293 274 162 234 108 51 13 85 118 96 91 231 257 116 295 278 228 254 273 306 328 1 33 16 15 22 25 26 27 26 22 20 17
178 176 176 179 185 186 183 172 155 120 98 127 129 171 200 188 156 172 143 127 139 147 148 152 169 201 173 170 187 207 220 124 139 230 170 151 241 178 168 196 180 193 282 286 190 205 251 127 107 351 128 70 1 41 18 336 330 274 232 103 95 5 16 100 108 137 227 280 95 276 290 280 241 192 136 78 16 21 9 7 14 19 21 21 22 25 28 30
181 179 180 185 193 199 204 209 202 189 66 88 116 225 195 155 156 166 155 137 137 140 154 159 108 304 194 174 178 173 186 178 154 160 169 188 236 164 148 168 180 201 260 218 186 317 299 140 111 44 243 28 318 257 197 72 27 322 44 98 146 250 105 152 223 183 292 298 265 251 289 262 240 172 142 125 29 7 353 0 9 11 9 9 14 23 31 34
182 178 178 188 197 203 208 214 207 190 119 90 196 221 175 163 169 167 161 153 149 150 163 166 87 2 202 168 141 152 189 183 151 166 202 195 191 163 154 162 173 193 208 171 227 65 337 274 140 134 289 316 262 230 215 120 101 320 348 115 315 336 354 45 41 319 283 240 266 313 315 228 214 181 152 126 78 353 344 358 360 357 359 4 8 15 25 29
181 175 175 191 195 199 200 192 183 173 147 101 185 174 164 170 167 168 164 154 151 167 164 152 136 147 177 153 16 161 165 172 166 178 230 195 174 163 181 180 154 163 169 79 257 189 56 296 219 124 225 257 196 179 307 48 116 197 209 172 140 94 348 146 93 6 314 211 194 287 298 214 163 170 149 124 122 137 342 326 334 351 1 7 8 11 20 21
176 172 183 190 187 188 183 167 134 120 120 85 127 152 181 163 151 160 167 156 130 127 129 123 130 143 153 157 231 178 146 154 184 188 209 196 208 303 180 176 153 150 149 120 179 207 179 232 137 128 182 225 91 52 8 357 347 305 256 260 141 130 166 213 161 72 7 298 215 269 296 300 120 174 165 125 128 153 288 301 321 348 357 3 7 9 8 3
173 167 179 184 182 180 172 143 52 65 101 132 135 133 146 146 141 154 168 163 127 99 112 103 94 123 156 160 153 166 154 149 170 192 240 207 183 38 154 164 161 161 159 109 116 166 156 115 105 112 207 273 46 62 42 335 335 338 319 328 2 174 217 254 235 160 136 171 6 352 280 308 110 190 192 160 143 188 283 287 310 340 354 2 359 344 336 339
172 158 162 176 176 171 165 126 24 59 53 94 119 122 132 139 143 153 168 178 167 131 123 117 125 143 180 178 139 171 184 179 173 175 225 211 126 93 153 163 164 165 162 60 110 151 159 123 101 85 290 234 142 130 202 265 253 251 251 214 224 269 329 2 8 131 153 179 173 183 238 242 119 192 204 195 204 263 280 272 303 338 348 351 344 321 301 308
159 141 151 170 172 174 175 170 160 161 62 104 97 99 124 145 162 157 172 194 182 159 143 147 162 145 124 109 126 160 198 204 200 168 64 188 151 131 159 170 165 171 191 302 155 167 178 200 159 146 159 184 181 184 198 201 220 238 194 149 184 105 90 102 120 122 230 202 169 229 246 219 117 178 211 208 232 271 271 280 312 332 329 327 330 319 303 308
148 128 144 168 173 182 194 199 154 135 143 137 102 130 139 140 184 183 178 176 173 170 154 138 141 129 112 103 100 89 41 15 168 114 84 127 133 137 171 193 191 197 232 269 163 167 175 232 189 183 187 200 199 206 230 179 171 201 160 158 185 161 150 163 115 158 230 178 149 225 237 188 91 221 223 216 240 298 296 305 323 334 325 319 324 327 320 320
156 136 135 163 179 191 205 207 164 130 146 163 129 171 176 121 174 186 173 170 178 165 131 118 134 125 102 130 122 101 45 19 47 143 140 155 160 153 184 193 201 203 188 152 154 139 110 135 223 223 236 278 14 63 344 2 136 166 170 167 183 190 188 160 129 189 192 135 186 229 234 330 274 220 219 220 199 292 304 319 337 342 331 318 320 327 328 330
167 173 158 155 183 198 206 208 186 150 160 183 173 159 169 143 118 164 175 196 191 166 133 111 159 164 171 162 142 135 142 56 80 131 119 150 145 73 195 189 197 198 176 157 160 132 133 191 157 179 239 321 11 58 345 330 210 173 162 164 177 185 181 187 196 179 138 141 239 242 186 235 259 231 214 209 189 288 293 305 323 325 318 313 319 328 337 344
170 179 173 168 175 180 188 212 197 172 151 172 169 126 157 165 155 174 183 191 187 180 169 181 213 212 193 172 154 149 152 113 165 164 129 150 153 107 129 230 246 208 185 175 185 178 269 218 152 144 241 294 58 13 335 315 238 204 198 180 176 177 186 201 208 177 171 201 264 94 171 215 250 254 226 216 283 291 282 283 297 303 309 315 326 342 347 348
163 152 168 175 177 171 175 188 181 168 149 151 160 140 170 184 185 177 155 131 181 214 204 207 224 204 187 185 162 150 167 178 188 194 176 155 170 161 135 208 227 202 185 177 184 200 210 168 131 169 260 214 64 15 356 321 278 256 227 201 187 188 196 211 219 188 218 258 293 110 224 251 254 250 258 274 282 271 260 269 283 295 315 323 335 349 347 344
178 162 166 169 150 133 148 154 160 161 146 146 192 202 180 186 189 177 168 168 171 198 198 210 221 175 169 181 176 184 212 193 162 189 177 154 160 203 192 184 164 158 174 172 128 194 209 127 100 159 266 309 35 17 21 21 289 255 243 211 187 191 208 226 242 211 224 265 271 235 262 275 262 241 250 262 255 233 247 270 283 306 326 328 340 349 342 335
190 180 170 164 140 118 134 142 149 151 138 180 197 188 181 202 194 167 171 207 198 168 190 194 160 138 142 192 199 242 237 200 213 199 177 167 168 190 192 175 156 149 157 176 156 174 183 121 94 140 242 262 27 352 340 7 311 262 262 230 189 183 201 212 215 200 194 206 197 186 244 267 254 204 203 209 206 225 251 268 290 316 325 325 336 342 334 325
191 185 176 162 140 148 156 142 139 156 193 199 190 179 187 207 188 171 169 235 219 210 210 192 163 142 137 203 207 233 234 205 247 169 169 166 146 151 148 143 156 156 152 155 153 10 162 156 141 160 229 242 33 344 314 327 288 260 265 227 189 185 193 195 216 220 206 183 148 186 225 248 127 153 167 184 207 233 257 270 298 315 316 314 327 332 327 318